Content
SEND FEEDBACK

Daily
Averages
Monthly
Summary
Turkmenistan

ASHGABAT, TURKMENISTAN


Home > Asia > Turkmenistan
Elevation: 775 feet     Latitude: 37 58N     Longitude: 058 20E

WEATHER
 
SELECT A DAY
Number of Records: 177,170;   Date Range: 3/15/97 - 7/23/14
 
SHARE

PRINT THIS DATA

[ ← Previous Day ]
WEATHER ALMANAC - JULY 4, 2014
[ Next Day → ]
[ °C ]   °F
Weather ElementAverageHighLow
Temperature88.6 °F100.4 °F (4:00 pm)73 °F (5:00 am)
Dewpoint33.5 °F45 °F (8:00 am)28.4 °F (1:00 am)
Humidity13.2 %22 % (3:00 am)5 % (5:00 pm)
Barometer29.79 in29.83 in (8:00 am)29.73 in (8:00 pm)
Wind Speed6.1 mph8.9 mph (12:30 pm)
Wind Gust15.7 mph (4:00 pm)
Weather ElementAverage
Visibility5.8 mi
Wind DirectionWSW (236.2 °)

Weather ElementTotal
Precipitation---
Cooling Degree Days21.7 (Base 65)
Growing Degree Days36.7 (Base 50)
Averaged from 34 records on July 4, 2014
WEATHER CONDITIONS BREAKOUT
WIND DIRECTION BREAKOUT
WEATHER BY HOUR - JULY 4, 2014
[ °C ]   °F
Local TimeTemperatureDewpointHumidityBarometerVisibilityWind DirectionWind SpeedGust SpeedPrecipitationEventsConditions
1:00 AM82.4 °F28.4 °F14 %29.80 in6.2 miWSW (250°)6.7 mphClear
2:00 AM74.0 °F41.0 °F20 %29.81 in6.0 miSW (220°)4.5 mph
2:00 AM78.8 °F32.0 °F18 %29.80 in1.6 miSSW (210°)4.5 mphHaze
3:00 AM77.0 °F35.6 °F22 %29.77 in5.6 miSW (230°)4.5 mphClear
4:00 AM75.2 °F32.0 °F21 %29.80 in3.1 miWSW (240°)4.5 mphHaze
5:00 AM73.0 °F40.0 °F20 %29.81 in6.0 miWest (280°)4.5 mph
5:00 AM73.4 °F32.0 °F22 %29.80 in3.7 miWest (280°)4.5 mphClear
6:00 AM73.4 °F32.0 °F22 %29.80 in6.2 miWest (260°)6.7 mphClear
7:00 AM78.8 °F32.0 °F18 %29.80 in6.2 miWest (260°)6.7 mphClear
8:00 AM79.0 °F45.0 °F19 %29.81 in6.0 miWest (270°)6.7 mph
8:00 AM84.2 °F32.0 °F15 %29.83 in6.2 miWest (270°)6.7 mphClear
9:00 AM87.8 °F33.8 °F15 %29.83 in6.2 miNNW (330°)6.7 mphPartly Cloudy
10:00 AM91.4 °F33.8 °F13 %29.83 in6.2 miNorth (360°)6.7 mphPartly Cloudy
11:00 AM92.0 °F41.0 °F9 %29.81 in6.0 miNNE (30°)6.7 mphClear
11:00 AM93.2 °F33.8 °F12 %29.83 in6.2 miNNE (30°)6.7 mphPartly Cloudy
12:00 PM95.0 °F33.8 °F12 %29.80 in6.2 miNNE (20°)6.7 mphPartly Cloudy
12:30 PM95.0 °F33.8 °F12 %29.80 in6.2 miNorth (360°)8.9 mphPartly Cloudy
1:00 PM96.8 °F32.0 °F10 %29.80 in6.2 miWNW (300°)8.9 mphPartly Cloudy
1:30 PM96.8 °F33.8 °F11 %29.80 in6.2 miNNW (330°)8.9 mphPartly Cloudy
2:00 PM96.0 °F39.0 °F7 %29.78 in6.0 miWNW (300°)6.7 mphClear
2:00 PM96.8 °F32.0 °F10 %29.80 in6.2 miSouth (190°)6.7 mphPartly Cloudy
2:30 PM98.6 °F32.0 °F10 %29.77 in6.2 miNorth (350°)6.7 mphPartly Cloudy
3:00 PM96.8 °F30.2 °F10 %29.77 in6.2 miNW (310°)6.7 mphPartly Cloudy
4:00 PM100.4 °F28.4 °F8 %29.77 in6.2 miNNW (330°)4.5 mph15.7 mphPartly Cloudy
5:00 PM98.0 °F35.0 °F5 %29.75 in6.0 miNW (310°)8.9 mph
5:00 PM96.8 °F28.4 °F9 %29.77 in6.2 miNW (320°)6.7 mphClear
6:00 PM96.8 °F28.4 °F9 %29.74 in6.2 miVariable2.2 mphClear
7:00 PM96.8 °F28.4 °F9 %29.74 in6.2 miVariable2.2 mphClear
8:00 PM94.0 °F36.0 °F6 %29.73 in6.0 miSW (230°)6.7 mph
8:00 PM95.0 °F30.2 °F10 %29.74 in6.2 miSW (220°)6.7 mphClear
9:00 PM91.4 °F33.8 °F13 %29.74 in6.2 miSW (220°)6.7 mphClear
10:00 PM87.8 °F30.2 °F13 %29.77 in6.2 miWSW (240°)6.7 mphClear
11:00 PM83.0 °F38.0 °F11 %29.77 in6.0 miWSW (240°)4.5 mph
11:00 PM86.0 °F30.2 °F13 %29.77 in6.2 miWSW (240°)4.5 mphClear
Hourly data recorded from UTAA, located miles away from Ashgabat, Turkmenistan







STORIES FROM OUR PARTNERS